Tracking 20083 objects as of 10-Dec-2019
HD Live streaming from Space Station
objects crossing your sky now

NINGXIA-1 2

Track NINGXIA-1 2 now!
10-day predictions


NORAD ID: 44780
Int'l Code: 2019-076B
Perigee: 892.1 km
Apogee: 905.7 km
Inclination: 45.0 °
Period: 102.8 minutes
Semi major axis: 7269 km
RCS: Unknown
Launch date: November 13, 2019
Source: People's Republic of China (PRC)
Launch site: Taiyaun Space Center, China (TSC)
aabbcc
Your satellite tracking list
Your tracking list is empty




NASA's NSSDC Master Catalog

Two Line Element Set (TLE):
1 44780U 19076B   19344.50466350 -.00000130  00000-0  00000+0 0  9990
2 44780  45.0149  13.9398 0009322  12.9595 347.1471 14.00581960  3822
Source of the keplerian elements: AFSPC